Hayden, CO

12:22 PM MDT on April 23, 2017 (GMT -0600)
Yampa Valley

Weather History for KHDN - October, 2012

Change the Weather History Date:

Monday, October 8, 2012

  Actual Average Record
Temperature  
Mean Temperature 44 °F -  
Max Temperature 64 °F 63 °F 81 °F (1980)
Min Temperature 24 °F 29 °F 10 °F (1970)
Degree Days  
Heating Degree Days 21    
Moisture  
Dew Point 7 °F    
Average Humidity 26    
Maximum Humidity 46    
Minimum Humidity 11    
Precipitation  
Precipitation 0.00 in - - ()
Sea Level Pressure  
Sea Level Pressure 30.07 in    
Wind  
Wind Speed 11 mph (SSE)    
Max Wind Speed 20 mph    
Max Gust Speed 28 mph    
Visibility 10 miles    
Events      
Averages and records for this station are not official NWS values.
T = Trace of Precipitation, MM = Missing Value Source: NWS Daily Summary

Daily Weather History Graph

Daily Weather History Graph

Search for Another Location

Airport or City:

Trip Planner

Search our weather history database for the weather conditions in past years. The results will help you decide how hot, cold, wet, or windy it might be!

Date:

Astronomy

Oct. 08, 2012 Rise Set
Actual Time 7:13 AM MDT 6:38 PM MDT
Civil Twilight 6:45 AM MDT 7:06 PM MDT
Nautical Twilight 6:14 AM MDT 7:37 PM MDT
Astronomical Twilight 5:42 AM MDT 8:09 PM MDT
Moon No Moon Rise 2:31 PM MDT (10/8)
Length of Visible Light 12h 20m
Length of Day
11h 25m
Last Quarter, 46% of the Moon is Illuminated
Oct 8
Last Quarter
Oct 15
New
Oct 21
First Quarter
Oct 29
Full
Nov 6
Last Quarter

Hourly Weather History & Observations

Time (MDT) Temp. Windchill Dew Point Humidity Pressure Visibility Wind Dir Wind Speed Gust Speed Precip Events Conditions
12:15 AM 30.2 °F 20.8 °F 5.0 °F 34% 30.15 in 10.0 mi SSE 11.5 mph - N/A   Clear
12:35 AM 30.2 °F 20.8 °F 6.8 °F 37% 30.15 in 10.0 mi SE 11.5 mph - N/A   Clear
12:55 AM 30.2 °F 21.9 °F 5.0 °F 34% 30.15 in 10.0 mi SSE 9.2 mph - N/A   Clear
1:15 AM 30.2 °F 21.3 °F 6.8 °F 37% 30.15 in 10.0 mi SSE 10.4 mph - N/A   Clear
1:35 AM 28.4 °F 19.1 °F 5.0 °F 37% 30.15 in 10.0 mi SSE 10.4 mph - N/A   Clear
1:55 AM 28.4 °F 19.1 °F 5.0 °F 37% 30.15 in 10.0 mi SSE 10.4 mph - N/A   Clear
2:15 AM 28.4 °F 19.1 °F 5.0 °F 37% 30.16 in 10.0 mi SSE 10.4 mph - N/A   Clear
2:35 AM 28.4 °F 18.5 °F 5.0 °F 37% 30.15 in 10.0 mi SSE 11.5 mph - N/A   Clear
2:55 AM 28.4 °F 19.7 °F 5.0 °F 37% 30.15 in 10.0 mi SSE 9.2 mph - N/A   Clear
3:15 AM 28.4 °F 16.6 °F 6.8 °F 40% 30.14 in 10.0 mi SSE 16.1 mph - N/A   Clear
3:35 AM 28.4 °F 17.5 °F 6.8 °F 40% 30.13 in 10.0 mi South 13.8 mph - N/A   Clear
3:55 AM 26.6 °F 15.7 °F 5.0 °F 40% 30.13 in 10.0 mi SSE 12.7 mph - N/A   Clear
4:15 AM 26.6 °F 16.2 °F 3.2 °F 37% 30.14 in 10.0 mi South 11.5 mph - N/A   Clear
4:35 AM 26.6 °F 16.2 °F 6.8 °F 43% 30.14 in 10.0 mi SSE 11.5 mph - N/A   Clear
4:55 AM 26.6 °F 16.8 °F 6.8 °F 43% 30.14 in 10.0 mi SSE 10.4 mph - N/A   Clear
5:15 AM 26.6 °F 16.8 °F 6.8 °F 43% 30.14 in 10.0 mi SSE 10.4 mph - N/A   Clear
5:35 AM 26.6 °F 16.8 °F 6.8 °F 43% 30.14 in 10.0 mi SSE 10.4 mph - N/A   Clear
5:55 AM 26.6 °F 15.7 °F 6.8 °F 43% 30.14 in 10.0 mi South 12.7 mph - N/A   Clear
6:15 AM 26.6 °F 15.7 °F 6.8 °F 43% 30.14 in 10.0 mi SSE 12.7 mph - N/A   Clear
6:35 AM 24.8 °F 12.9 °F 6.8 °F 46% 30.14 in 10.0 mi SSE 13.8 mph - N/A   Clear
6:55 AM 24.8 °F 14.0 °F 6.8 °F 46% 30.14 in 10.0 mi SSE 11.5 mph - N/A   Clear
7:15 AM 24.8 °F 14.0 °F 6.8 °F 46% 30.14 in 10.0 mi SSE 11.5 mph - N/A   Clear
7:35 AM 24.8 °F 14.0 °F 6.8 °F 46% 30.14 in 10.0 mi SSE 11.5 mph - N/A   Clear
7:55 AM 26.6 °F 16.2 °F 6.8 °F 43% 30.14 in 10.0 mi SSE 11.5 mph - N/A   Clear
8:15 AM 28.4 °F 19.7 °F 6.8 °F 40% 30.14 in 10.0 mi SSE 9.2 mph - N/A   Clear
8:35 AM 30.2 °F 19.3 °F 6.8 °F 37% 30.14 in 10.0 mi SSE 15.0 mph - N/A   Clear
8:55 AM 32.0 °F 24.2 °F 6.8 °F 35% 30.14 in 10.0 mi SSE 9.2 mph - N/A   Clear
9:15 AM 33.8 °F 27.0 °F 8.6 °F 35% 30.14 in 10.0 mi SSE 8.1 mph - N/A   Clear
9:35 AM 35.6 °F 27.5 °F 8.6 °F 33% 30.14 in 10.0 mi SSE 11.5 mph - N/A   Clear
9:55 AM 37.4 °F 28.5 °F 8.6 °F 30% 30.13 in 10.0 mi SE 15.0 mph - N/A   Clear
10:15 AM 41.0 °F 35.8 °F 8.6 °F 26% 30.13 in 10.0 mi SSE 8.1 mph - N/A   Clear
10:35 AM 44.6 °F 41.4 °F 8.6 °F 23% 30.12 in 10.0 mi SSE 5.8 mph - N/A   Clear
10:55 AM 46.4 °F 45.2 °F 10.4 °F 23% 30.11 in 10.0 mi SE 3.5 mph - N/A   Clear
11:15 AM 48.2 °F - 8.6 °F 20% 30.10 in 10.0 mi East 3.5 mph - N/A   Clear
11:35 AM 50.0 °F - 8.6 °F 19% 30.10 in 10.0 mi North 3.5 mph - N/A   Clear
11:55 AM 51.8 °F - 10.4 °F 19% 30.09 in 10.0 mi North 5.8 mph - N/A   Clear
12:15 PM 53.6 °F - 10.4 °F 18% 30.09 in 9.0 mi NW 8.1 mph - N/A   Clear
12:35 PM 55.4 °F - 10.4 °F 17% 30.07 in 10.0 mi NNW 11.5 mph - N/A   Clear
12:55 PM 55.4 °F - 10.4 °F 17% 30.07 in 10.0 mi NNW 9.2 mph 17.3 mph N/A   Clear
1:15 PM 57.2 °F - 10.4 °F 16% 30.05 in 10.0 mi North 10.4 mph 16.1 mph N/A   Clear
1:35 PM 57.2 °F - 12.2 °F 17% 30.04 in 10.0 mi NNW 9.2 mph 18.4 mph N/A   Clear
1:55 PM 60.8 °F - 10.4 °F 14% 30.02 in 10.0 mi NNW 12.7 mph 19.6 mph N/A   Clear
2:15 PM 62.6 °F - 10.4 °F 13% 30.01 in 10.0 mi NNW 18.4 mph 24.2 mph N/A   Clear
2:35 PM 62.6 °F - 8.6 °F 12% 30.01 in 10.0 mi NNW 13.8 mph 20.7 mph N/A   Clear
2:55 PM 62.6 °F - 8.6 °F 12% 30.00 in 10.0 mi NW 11.5 mph 23.0 mph N/A   Clear
3:15 PM 62.6 °F - 8.6 °F 12% 30.00 in 10.0 mi WNW 12.7 mph 25.3 mph N/A   Clear
3:35 PM 62.6 °F - 8.6 °F 12% 29.99 in 10.0 mi NNW 12.7 mph 20.7 mph N/A   Clear
3:55 PM 62.6 °F - 6.8 °F 11% 29.99 in 10.0 mi NNW 13.8 mph 20.7 mph N/A   Clear
4:15 PM 64.4 °F - 8.6 °F 11% 29.98 in 10.0 mi NNW 17.3 mph 27.6 mph N/A   Clear
4:35 PM 62.6 °F - 6.8 °F 11% 29.98 in 10.0 mi NW 19.6 mph 26.5 mph N/A   Clear
4:55 PM 62.6 °F - 6.8 °F 11% 29.98 in 10.0 mi NW 19.6 mph 26.5 mph N/A   Clear
5:15 PM 62.6 °F - 6.8 °F 11% 29.98 in 10.0 mi NNW 17.3 mph 23.0 mph N/A   Clear
5:35 PM 62.6 °F - 6.8 °F 11% 29.98 in 10.0 mi NNW 19.6 mph 23.0 mph N/A   Clear
5:55 PM 60.8 °F - 6.8 °F 12% 29.98 in 10.0 mi NNW 19.6 mph 25.3 mph N/A   Clear
6:15 PM 59.0 °F - 5.0 °F 12% 29.99 in 10.0 mi NNW 16.1 mph - N/A   Clear
6:35 PM 57.2 °F - 3.2 °F 11% 29.99 in 10.0 mi NNW 10.4 mph - N/A   Clear
6:55 PM 53.6 °F - 3.2 °F 13% 29.99 in 10.0 mi NNW 4.6 mph - N/A   Clear
7:15 PM 53.6 °F - 3.2 °F 13% 29.99 in 10.0 mi NNW 3.5 mph - N/A   Clear
7:35 PM 53.6 °F - 3.2 °F 13% 29.99 in 10.0 mi Calm Calm - N/A   Clear
7:55 PM 51.8 °F - 3.2 °F 14% 30.00 in 10.0 mi WSW 4.6 mph - N/A   Clear
8:15 PM 51.8 °F - 5.0 °F 15% 29.99 in 10.0 mi WSW 4.6 mph - N/A   Clear
8:35 PM 48.2 °F - 5.0 °F 17% 30.00 in 10.0 mi West 3.5 mph - N/A   Clear
8:55 PM 48.2 °F - 6.8 °F 19% 30.00 in 10.0 mi WSW 4.6 mph - N/A   Clear
9:15 PM 44.6 °F 41.4 °F 6.8 °F 21% 30.01 in 10.0 mi East 5.8 mph - N/A   Clear
9:55 PM 48.2 °F - 6.8 °F 19% 30.01 in 10.0 mi Calm Calm - N/A   Clear
10:15 PM 48.2 °F - 6.8 °F 19% 30.02 in 10.0 mi ESE 6.9 mph - N/A   Clear
10:35 PM 42.8 °F 40.1 °F 6.8 °F 23% 30.02 in 10.0 mi ESE 4.6 mph - N/A   Clear
10:55 PM 44.6 °F 40.2 °F 8.6 °F 23% 30.03 in 10.0 mi ESE 8.1 mph - N/A   Clear
11:15 PM 42.8 °F 39.3 °F 8.6 °F 25% 30.03 in 10.0 mi ESE 5.8 mph - N/A   Clear
11:35 PM 44.6 °F 40.2 °F 8.6 °F 23% 30.03 in 10.0 mi ESE 8.1 mph - N/A   Clear
11:55 PM 42.8 °F 39.3 °F 8.6 °F 25% 30.03 in 10.0 mi ESE 5.8 mph - N/A   Clear